Notices

What's New in latest Release from April 7th, 2021:

- Updated Glossary, including Speed of Maximum Gust, and Total Hourly Precipitation

- Updated national and regional climate services offices contacts and prices information

- Addition of station inventory lists for 1981-2010, 1971-2000, and 1961-1990 Normals.

Please note that as of June 10, 2021 UTC dates are available for all years 2004-present, and DBA is working on populating the remaining years (2003 to 1953).

If you haven't already, please take our survey and provide feedback about our website: https://eccc.sondage-survey.ca/f/LanguageSelection.aspx?s=442ca660-fcf1-47c0-95a9-59707d6fd709

Hourly Data Report for November 02, 2019

QUALICUM BEACH AIRPORT
BRITISH COLUMBIA
Current Station Operator: ECCC - MSC

49°20'14.000" N
124°23'38.000" W
58.20 m
1026562
71766
VOQ

Download Data

Hourly Data (November 2019)
Hourly Data Report for November 2, 2019
TIME
LST
Temp Definition
°C
Dew Point Definition
°C
Rel Hum Definition
%
Precip. Amount Definition
mm

Wind Dir Definition
10's deg

Wind Spd Definition
km/h
Visibility Definition
km
Stn Press Definition
kPa
Hmdx Definition


Wind Chill Definition


Weather Definition


00:00 2.4 2.0 97 0.0 23 2   102.26     LegendNANA
01:00 2.2 1.9 97 0.0 23 2   102.24     LegendNANA
02:00 2.4 2.0 98 0.0 27 3   102.21     LegendNANA
03:00 1.5 1.2 97 0.0 21 1   102.18     LegendNANA
04:00 2.6 2.2 97 0.0 25 2   102.14     LegendNANA
05:00 1.6 1.2 97 0.0 15 1   102.08     LegendNANA
06:00 2.1 1.7 98 0.0 24 1   102.07     LegendNANA
07:00 1.5 1.2 97 0.0   0   102.05     LegendNANA
08:00 2.4 2.1 98 0.0 0 1   102.05     LegendNANA
09:00 6.1 5.4 95 0.0   0   102.10     LegendNANA
10:00 10.1 6.3 77 0.0 0 1   102.05     LegendNANA
11:00 10.7 7.2 79 0.0 31 10   102.05     LegendNANA
12:00 11.3 7.3 76 0.0 34 12   101.94     LegendNANA
13:00 11.4 7.3 76 0.0 33 12   101.88     LegendNANA
14:00 11.5 7.7 77 0.0 33 13   101.85     LegendNANA
15:00 11.4 7.7 78 0.0 32 7   101.78     LegendNANA
16:00 10.5 7.4 81 0.0 32 6   101.72     LegendNANA
17:00 8.3 6.5 89 0.0 27 4   101.69     LegendNANA
18:00 7.0 5.9 93 0.0 25 3   101.69     LegendNANA
19:00 7.1 5.8 91 0.0 23 5   101.68     LegendNANA
20:00 7.1 6.2 94 0.0 26 2   101.68     LegendNANA
21:00 7.4 6.6 94 0.0 25 4   101.69     LegendNANA
22:00 7.9 7.0 94 0.0 25 4   101.69     LegendNANA
23:00 7.9 6.9 94 0.0 24 2   101.70     LegendNANA

Notes on Data Quality.

Legend

  • E = Estimated
  • M = Missing
  • NA = Not Available*
  • [empty] = Indicates an unobserved value
Date modified: